When you browse on this site, cookies collect data to enhance your experience and personalize the content and advertising you see.
Visit our Privacy Policy to learn more. By continuing to use the site, you agree to this use of cookies and data.
  • In Österreich
  • Länderverzeichnis
  • Für 7 Tage
  • Wassertemperatur
  • Wetterkarte
  • News
  • Widgets
  • user-avatar
    Anmelden

    Stündliche Wetter Hlybochok

    Heute, 17 September, Dienstag

    Zeit Temperatur Niederschläge Wind Luftdruck Luftfeuchtigkeit
    00:00 +15°C° 0 mm 2 m/S 723 mmHg 99%
    01:00 +13°C° 1.7 mm 3 m/S 724 mmHg 100%
    02:00 +13°C° 0.6 mm 4 m/S 724 mmHg 100%
    03:00 +12°C° 1.1 mm 4 m/S 724 mmHg 100%
    04:00 +11°C° 0.5 mm 3 m/S 724 mmHg 100%
    05:00 +11°C° 0.7 mm 3 m/S 724 mmHg 100%
    06:00 +12°C° 0.6 mm 2 m/S 723 mmHg 100%
    07:00 +12°C° 0.3 mm 1 m/S 723 mmHg 100%
    08:00 +12°C° 0.2 mm 2 m/S 723 mmHg 98%
    09:00 +13°C° 0 mm 2 m/S 723 mmHg 95%
    10:00 +14°C° 0 mm 1 m/S 724 mmHg 91%
    11:00 +14°C° 0 mm 2 m/S 724 mmHg 89%
    12:00 +14°C° 0 mm 1 m/S 723 mmHg 90%
    13:00 +15°C° 0 mm 2 m/S 723 mmHg 90%
    14:00 +14°C° 0 mm 2 m/S 723 mmHg 91%
    15:00 +13°C° 0 mm 2 m/S 723 mmHg 96%
    16:00 +13°C° 0 mm 2 m/S 722 mmHg 98%
    17:00 +13°C° 0 mm 1 m/S 722 mmHg 97%
    18:00 +14°C° 0 mm 1 m/S 722 mmHg 97%
    19:00 +13°C° 0 mm 2 m/S 721 mmHg 99%
    20:00 +13°C° 0 mm 2 m/S 721 mmHg 97%
    21:00 +12°C° 0 mm 2 m/S 721 mmHg 98%
    22:00 +12°C° 0 mm 2 m/S 720 mmHg 98%
    23:00 +12°C° 0 mm 2 m/S 720 mmHg 94%

    Morgen, 18 September, Mittwoch

    Zeit Temperatur Niederschläge Wind Luftdruck Luftfeuchtigkeit
    00:00 +13°C° 0 mm 2 m/S 719 mmHg 90%
    01:00 +12°C° 0 mm 4 m/S 719 mmHg 88%
    02:00 +12°C° 0 mm 5 m/S 720 mmHg 89%
    03:00 +11°C° 0 mm 3 m/S 720 mmHg 92%
    04:00 +10°C° 0 mm 3 m/S 720 mmHg 90%
    05:00 +10°C° 0 mm 4 m/S 720 mmHg 91%
    06:00 +8°C° 0 mm 6 m/S 721 mmHg 89%
    07:00 +8°C° 0 mm 6 m/S 722 mmHg 87%
    08:00 +8°C° 0 mm 6 m/S 722 mmHg 83%
    09:00 +9°C° 0 mm 7 m/S 723 mmHg 76%
    10:00 +9°C° 0 mm 7 m/S 724 mmHg 73%
    11:00 +10°C° 0 mm 8 m/S 724 mmHg 74%
    12:00 +11°C° 0 mm 8 m/S 725 mmHg 73%
    13:00 +11°C° 0 mm 8 m/S 725 mmHg 70%
    14:00 +12°C° 0 mm 8 m/S 725 mmHg 68%
    15:00 +12°C° 0 mm 8 m/S 725 mmHg 67%
    16:00 +13°C° 0 mm 8 m/S 725 mmHg 65%
    17:00 +12°C° 0 mm 7 m/S 725 mmHg 67%
    18:00 +11°C° 0 mm 6 m/S 726 mmHg 71%
    19:00 +11°C° 0 mm 4 m/S 726 mmHg 80%
    20:00 +10°C° 0 mm 4 m/S 727 mmHg 84%
    21:00 +10°C° 0 mm 4 m/S 727 mmHg 85%
    22:00 +8°C° 0 mm 4 m/S 728 mmHg 86%
    23:00 +8°C° 0 mm 4 m/S 728 mmHg 86%

    übermorgen, 19 September, Donnerstag

    Zeit Temperatur Niederschläge Wind Luftdruck Luftfeuchtigkeit
    00:00 +7°C° 0 mm 4 m/S 728 mmHg 86%
    01:00 +7°C° 0 mm 4 m/S 728 mmHg 86%
    02:00 +6°C° 0 mm 4 m/S 728 mmHg 87%
    03:00 +6°C° 0 mm 4 m/S 728 mmHg 88%
    04:00 +6°C° 0 mm 4 m/S 728 mmHg 88%
    05:00 +5°C° 0 mm 3 m/S 728 mmHg 89%
    06:00 +5°C° 0 mm 3 m/S 728 mmHg 89%
    07:00 +6°C° 0 mm 2 m/S 729 mmHg 89%
    08:00 +8°C° 0 mm 2 m/S 729 mmHg 86%
    09:00 +10°C° 0 mm 3 m/S 730 mmHg 78%
    10:00 +11°C° 0 mm 4 m/S 730 mmHg 75%
    11:00 +12°C° 0 mm 3 m/S 730 mmHg 75%
    12:00 +13°C° 0 mm 3 m/S 730 mmHg 73%
    13:00 +14°C° 0 mm 2 m/S 730 mmHg 74%
    14:00 +8°C° 3.7 mm 4 m/S 730 mmHg 99%
    15:00 +11°C° 1.3 mm 1 m/S 730 mmHg 92%
    16:00 +10°C° 0.3 mm 2 m/S 730 mmHg 90%
    17:00 +9°C° 0.3 mm 3 m/S 730 mmHg 91%
    18:00 +10°C° 0 mm 2 m/S 729 mmHg 89%
    19:00 +9°C° 0 mm 2 m/S 729 mmHg 95%
    20:00 +9°C° 0 mm 2 m/S 729 mmHg 95%
    21:00 +9°C° 0 mm 2 m/S 729 mmHg 93%
    22:00 +8°C° 0 mm 3 m/S 729 mmHg 96%
    23:00 +8°C° 0 mm 3 m/S 730 mmHg 96%

    20 September, Freitag

    Zeit Temperatur Niederschläge Wind Luftdruck Luftfeuchtigkeit
    00:00 +8°C° 0 mm 3 m/S 730 mmHg 98%
    01:00 +7°C° 0 mm 3 m/S 729 mmHg 99%
    02:00 +7°C° 0 mm 3 m/S 729 mmHg 100%
    03:00 +6°C° 0 mm 4 m/S 729 mmHg 99%
    04:00 +5°C° 0 mm 4 m/S 729 mmHg 99%
    05:00 +5°C° 0 mm 4 m/S 729 mmHg 99%
    06:00 +5°C° 0 mm 4 m/S 729 mmHg 98%
    07:00 +5°C° 0 mm 5 m/S 729 mmHg 94%
    08:00 +5°C° 0.1 mm 4 m/S 729 mmHg 99%
    09:00 +6°C° 0.3 mm 4 m/S 729 mmHg 98%
    10:00 +6°C° 0 mm 7 m/S 730 mmHg 87%
    11:00 +8°C° 0 mm 7 m/S 730 mmHg 88%
    12:00 +6°C° 0 mm 7 m/S 730 mmHg 87%
    13:00 +8°C° 0.2 mm 6 m/S 730 mmHg 86%
    14:00 +9°C° 0 mm 6 m/S 730 mmHg 81%

    21 September, Samstag

    Zeit Temperatur Niederschläge Wind Luftdruck Luftfeuchtigkeit

    22 September, Sonntag

    Zeit Temperatur Niederschläge Wind Luftdruck Luftfeuchtigkeit
    Mehr zeigen